Regional Weather Roundup
Issued by NWS

Home | Current Version | Previous Version | Graphics & Text | Print | Product List | Glossary On
Versions: 1 2 3 4 5 6 7 8 9 10 11 12 13 14 15 16 17 18 19 20 21 22 23 24 25 26 27 28 29 30 31 32 33 34 35 36 37 38 39 40 41 42 43 44 45 46 47 48 49 50
000
ASUS43 KLOT 271709
RWRIL

ILLINOIS REGIONAL WEATHER ROUNDUP
NATIONAL WEATHER SERVICE CHICAGO/ROMEOVILLE IL
1200 PM CDT SAT AUG 27 2016

NOTE: "FAIR" INDICATES FEW OR NO CLOUDS BELOW 12,000 FEET WITH NO
SIGNIFICANT WEATHER AND/OR OBSTRUCTIONS TO VISIBILITY.

* THESE STATIONS ARE NOT UNDER NWS QUALITY CONTROL. THEY ALSO MAY NOT
  REPORT WEATHER SUCH AS PRECIPITATION OR FOG.

ILZ001-002-007-009-015-016-024-271800-
NORTHWEST ILLINOIS

CITY           SKY/WX    TMP DP  RH WIND       PRES   REMARKS
MOLINE         MOSUNNY   80  70  71 W9        30.01F HX  83
STERLING*      PTSUNNY   79  71  76 SW8       30.02S HX  82
SAVANNA*       MOSUNNY   78  71  79 S9        30.01S HX  80
$$

ILZ003-004-008-010-011-017-018-271800-
NORTH CENTRAL ILLINOIS

CITY           SKY/WX    TMP DP  RH WIND       PRES   REMARKS
ROCKFORD       CLOUDY    77  69  76 S9        30.04S
FREEPORT*      CLOUDY    75  69  82 W7        30.04S
ROCHELLE*      CLOUDY    77  71  81 S7        30.04F
DE KALB*       CLOUDY    76  72  86 S12G17    30.06S
$$

ILZ005-006-012>014-019>023-271800-
NORTHEAST ILLINOIS

CITY           SKY/WX    TMP DP  RH WIND       PRES   REMARKS
CHICAGO-OHARE  CLOUDY    75  71  87 S9        30.05S
CHICAGO-MIDWAY PTSUNNY   78  71  79 S10G17    30.05F HX  80
AURORA         CLOUDY    78  71  79 S10       30.05F HX  80
LANSING*       CLOUDY    77  73  88 S9        30.07F
JOLIET*        CLOUDY    78  73  84 S8        30.06S HX  81
WAUKEGAN       CLOUDY    73  70  90 S9        30.04S
DUPAGE AIRPORT CLOUDY    76  70  82 S10       30.04F
KANKAKEE*      PTSUNNY   81  74  78 SE9       30.08S HX  86
WHEELING       CLOUDY    75  71  87 S9        30.06R
MORRIS*        CLOUDY    79  73  81 S8        30.04F HX  83
ROMEOVILLE*    CLOUDY    77  75  93 S9        30.06S
NORTHERLY ISL    N/A     73  70  90 E2          N/A
$$

LMZ740>746-271800-
SOUTHERN LAKE MICHIGAN

STATION/POSITION SKY/WX   TEMP    WIND        PRES    VSBY  WAVE
                          AIR SEA DIR/SP/G                  HT/PER
                          (F)     (DEG/KT/KT) (MB)    (MI)  (FT/S)
SOUTHERN BUOY              73 74  150/ 10/ 12 1016.9R         2/ 4
WILMETTE HARBOR            71 69  180/ 10/ 12   N/A           2/ 4
HARRISON CRIB              72     150/ 10/ 11   N/A
BURNHAM HARBOR             75     190/  8       N/A
CALUMET HARBOR             75     160/  7/ 10 1017.4R
BURNS HARBOR               77     150/  8/ 15 1018.6S
MICHIGAN CITY              74     120/ 10/ 12   N/A
MICHIGAN CITY 6N           74 75  150/ 10/ 12   N/A           1/ 4
ST. JOSEPH                 74 75  140/ 12/ 14 1017.8F         1/ 2
$$

ILZ025>027-034>036-040-047-049-050-058-095>099-271800-
WEST-CENTRAL ILLINOIS

CITY           SKY/WX    TMP DP  RH WIND       PRES   REMARKS
QUINCY         MOSUNNY   83  75  77 S8        30.04F HX  90
GALESBURG*     MOSUNNY   81  72  74 SW9       30.04R HX  85
MACOMB*        MOSUNNY   81  73  77 SW7       30.06S HX  85
JACKSONVILLE*  CLOUDY    81  74  78 S3        30.06S HX  86
PITTSFIELD*    PTSUNNY   84  73  70 SW6       30.06F HX  90
$$

ILZ028>032-037-038-041>044-048-051>054-059>061-271800-
CENTRAL ILLINOIS

CITY           SKY/WX    TMP DP  RH WIND       PRES   REMARKS
PONTIAC        MOSUNNY   83  76  80 S7        30.06F HX  91
BLOOMINGTON    CLOUDY    81  73  76 S9        30.08F HX  86
DECATUR        MOSUNNY   84  73  69 SW6       30.07F HX  90
PEORIA         CLOUDY    74  74 100 SW10      30.05S
LACON*         MOSUNNY   79  71  78 SW9       30.04S HX  81
LINCOLN*       MOSUNNY   84  75  74 S5        30.06F HX  91
SPRINGFIELD    CLOUDY    84  73  69 S5        30.06F HX  90
TAYLORVILLE    SUNNY     83  74  73 S6        30.07F HX  90
$$

ILZ033-039-045-046-055>057-062-063-271800-
EAST-CENTRAL ILLINOIS

CITY           SKY/WX    TMP DP  RH WIND       PRES   REMARKS
CHAMPAIGN      MOSUNNY   83  74  74 S6        30.09F HX  89
RANTOUL*       MOSUNNY   84  75  75 S7        30.08F HX  91
MATTOON        SUNNY     81  71  71 S8        30.08F HX  85
PARIS*         MOSUNNY   81  75  81 S3        30.10F HX  87
$$

ILZ079-100>102-271800-
SOUTHWEST ILLINOIS

CITY           SKY/WX    TMP DP  RH WIND       PRES   REMARKS
ALTON          PTSUNNY   86  72  62 VRB5      30.07F HX  92
BELLEVILLE     MOSUNNY   87  72  62 SE7       30.07S HX  93
CAHOKIA*       MOSUNNY   85  71  63 SE6       30.07S HX  90
SPARTA*        SUNNY     83  73  72 E5        30.09F HX  89
$$

ILZ064>066-069>071-074>076-080>082-084>086-088>090-092>094-271800-
SOUTH-CENTRAL ILLINOIS

CITY           SKY/WX    TMP DP  RH WIND       PRES   REMARKS
CARBONDALE     MOSUNNY   82  71  69 VRB3      30.09F HX  86
CAIRO*         SUNNY     80  73  79 CALM      30.10S HX  84
EFFINGHAM*     MOSUNNY   84  75  74 SE5       30.10F HX  91
MARION         MOSUNNY   82  73  74 SE6       30.11F HX  88
MT. VERNON     MOSUNNY   84  70  61 S7        30.10F HX  88
CENTRALIA*     SUNNY     84  74  73 S5        30.09S HX  91
SALEM*         CLOUDY    85  72  65 SW5       30.10S HX  90
METROPOLIS*    MOSUNNY   83  74  73 W3        30.11S HX  90
$$

ILZ067-068-072-073-078-083-087-091-271800-
SOUTHEAST ILLINOIS

CITY           SKY/WX    TMP DP  RH WIND       PRES   REMARKS
LAWRENCEVILLE  CLOUDY    79  73  82 VRB3      30.11F HX  82
FLORA*         CLOUDY    83  74  74 S6        30.10F HX  90
FAIRFIELD*     MOSUNNY   82  72  71 SE3       30.09F HX  86
HARRISBURG*    MOSUNNY   81  74  78 SE3       30.11F HX  86
ROBINSON*      CLOUDY    79  73  80 S6        30.11F HX  83
CARMI*         MOSUNNY   82  74  76 S5        30.10F HX  88
$$

ABBREVIATIONS USED IN REMARKS
   TC - TEMPERATURE IN CELSIUS
  WCI - WIND CHILL INDEX
   HX - HEAT INDEX
  VSB - VISIBILITY
$$




USA.gov is the U.S. government's official web portal to all federal, state and local government web resources and services.